Location: Pl�tzky
(52.0521°N, 11.8020°E)
Time: 18:40:05
(UTC+00:00)

BREEZE-M DEB (TANK) - Pass Details

Date: 22 November 2019
Orbit: 427 x 13857 km, 45.9° (Epoch: 09 December)

Event Time Altitude Azimuth Distance (km) Brightness Sun altitude
Rises 17:10:52 0° 238° (WSW) 4,611 8.3 -17.6°
Reaches altitude 10° 17:15:17 10° 228° (SW) 2,584 6.6 -18.2°
Maximum altitude 17:19:23 25° 171° (S) 1,127 3.9 -18.9°
Enters shadow 17:20:08 23° 149° (SSE) 1,114 3.6 -19.0°
